Tracking 32412 objects as of 6-Dec-2025
HD Live streaming from Space Station
objects crossing your sky now

COSMOS 1275 DEB

Track COSMOS 1275 DEB now!
10-day predictions


NORAD ID: 12671
Int'l Code: 1981-053AB
Perigee: 846.9 km
Apogee: 877.9 km
Inclination: 82.9 °
Period: 102.0 minutes
Semi major axis: 7233 km
RCS: 0.0812 m2 (small)
Launch date: June 4, 1981
Source: Commonwealth of Independent States (former USSR) (CIS)
Launch site: PLESETSK MISSILE AND SPACE COMPLEX (PKMTR)

Note: This is SATELLITE DEBRIS
Your satellite tracking list
Your tracking list is empty




NASA's NSSDC Master Catalog

Two Line Element Set (TLE):
1 12671U 81053AB  25340.25042501  .00003680  00000-0  20281-2 0  9999
2 12671  82.9070 341.9376 0021436 111.9148 248.4311 14.11197958252636
Source of the keplerian elements: AFSPC